Regional Weather Roundup
Issued by NWS

Home | Current Version | Previous Version | Graphics & Text | Print | Product List | Glossary On
Versions: 1 2 3 4 5 6 7 8 9 10 11 12 13 14 15 16 17 18 19 20 21 22 23 24 25 26 27 28 29 30 31 32 33 34 35 36 37 38 39 40 41 42 43 44 45 46 47 48 49 50
626
ASUS43 KLOT 271603
RWRIL

ILLINOIS REGIONAL WEATHER ROUNDUP
NATIONAL WEATHER SERVICE CHICAGO/ROMEOVILLE IL
1100 AM CDT THU APR 27 2017

NOTE: "FAIR" INDICATES FEW OR NO CLOUDS BELOW 12,000 FEET WITH NO
SIGNIFICANT WEATHER AND/OR OBSTRUCTIONS TO VISIBILITY.

* THESE STATIONS ARE NOT UNDER NWS QUALITY CONTROL. THEY ALSO MAY NOT
  REPORT WEATHER SUCH AS PRECIPITATION OR FOG.

ILZ001-002-007-009-015-016-024-271700-
NORTHWEST ILLINOIS

CITY           SKY/WX    TMP DP  RH WIND       PRES   REMARKS
MOLINE         CLOUDY    41  34  76 W14G25    29.64R
STERLING*      CLOUDY    40  37  89 W20       29.61R
SAVANNA*       CLOUDY    41  36  82 W13G20    29.60R
$$

ILZ003-004-008-010-011-017-018-271700-
NORTH CENTRAL ILLINOIS

CITY           SKY/WX    TMP DP  RH WIND       PRES   REMARKS
ROCKFORD       CLOUDY    42  37  82 W14       29.58R
FREEPORT*      CLOUDY    40  36  87 W12G21    29.57R
ROCHELLE*      CLOUDY    41  38  88 W17G26    29.59R
DE KALB*       CLOUDY    41  37  86 W16G23    29.58R
PERU*          CLOUDY    41  37  86 W15       29.63R
$$

ILZ005-006-012>014-019>023-271700-
NORTHEAST ILLINOIS

CITY           SKY/WX    TMP DP  RH WIND       PRES   REMARKS
CHICAGO-OHARE  CLOUDY    47  39  74 SW21G29   29.53R
CHICAGO-MIDWAY CLOUDY    47  40  76 SW18G28   29.55R
AURORA         CLOUDY    44  39  82 W25G33    29.58R
LANSING*       CLOUDY    46  43  87 W14       29.58R
JOLIET*        CLOUDY    46  40  79 W14G21    29.61R
WAUKEGAN       PTSUNNY   47  40  76 W10G25    29.49R
DUPAGE AIRPORT CLOUDY    46  41  82 W20G25    29.55R
KANKAKEE*      CLOUDY    46  40  78 W23G30    29.64R
WHEELING       CLOUDY    47  40  76 W15G25    29.53R
MORRIS*        CLOUDY    44  38  81 W18G28    29.61R
NORTHERLY ISL    N/A     47  38  71 SW10        N/A
$$

LMZ740>746-271700-
SOUTHERN LAKE MICHIGAN

STATION/POSITION SKY/WX   TEMP    WIND        PRES    VSBY  WAVE
                          AIR SEA DIR/SP/G                  HT/PER
                          (F)     (DEG/KT/KT) (MB)    (MI)  (FT/S)
SOUTHERN BUOY              44 41  260/ 17/ 21  996.8          4/ 4
HARRISON CRIB              47     240/ 19/ 24   N/A
BURNHAM HARBOR             47     270/ 11/ 20   N/A
CALUMET HARBOR             47     220/ 10/ 17 1000.1R
BURNS HARBOR               48     240/ 20/ 25 1001.4R
MICHIGAN CITY              47     230/ 23/ 24   N/A
MICHIGAN CITY 6N           47 48                N/A           6/ 4
ST. JOSEPH                 46 47  250/ 17/ 21 1001.5R         6/ 5
$$

ILZ025>027-034>036-040-047-049-050-058-095>099-271700-
WEST-CENTRAL ILLINOIS

CITY           SKY/WX    TMP DP  RH WIND       PRES   REMARKS
QUINCY         CLOUDY    44  36  73 W12       29.71R
GALESBURG*     CLOUDY    42  37  82 W14G22    29.66R
MACOMB*        CLOUDY    44  40  85 W17G24    29.70S
JACKSONVILLE*  CLOUDY    45  41  85 W14       29.71R
PITTSFIELD*    CLOUDY    45  37  73 W14G20    29.73R
$$

ILZ028>032-037-038-041>044-048-051>054-059>061-271700-
CENTRAL ILLINOIS

CITY           SKY/WX    TMP DP  RH WIND       PRES   REMARKS
PONTIAC        CLOUDY    45  41  88 W18       29.65R
BLOOMINGTON    CLOUDY    44  38  79 W21       29.66R
DECATUR        CLOUDY    46  45  96 W9        29.70R FOG
PEORIA         CLOUDY    45  38  76 W14       29.67R
LACON*         CLOUDY    43  37  80 W14G20    29.65R
LINCOLN*       CLOUDY    46  42  88 CALM      29.69R FOG
SPRINGFIELD    CLOUDY    47  42  83 W13       29.70R
TAYLORVILLE    CLOUDY    46  42  86 W14       29.71R
$$

ILZ033-039-045-046-055>057-062-063-271700-
EAST-CENTRAL ILLINOIS

CITY           SKY/WX    TMP DP  RH WIND       PRES   REMARKS
CHAMPAIGN      CLOUDY    47  41  80 W20       29.68R
RANTOUL*       CLOUDY    48  43  82 W14G26    29.67R
MATTOON        CLOUDY    49  44  83 W12       29.69R
PARIS*         CLOUDY    49  45  84 W16       29.70R
$$

ILZ079-100>102-271700-
SOUTHWEST ILLINOIS

CITY           SKY/WX    TMP DP  RH WIND       PRES   REMARKS
ALTON          CLOUDY    48  41  76 W14G20    29.75R
BELLEVILLE     CLOUDY    51  45  81 W6        29.74R
CAHOKIA*       CLOUDY    50  40  68 W10G17    29.75R
SPARTA*        CLOUDY    48  41  76 W7        29.78R
$$

ILZ064>066-069>071-074>076-080>082-084>086-088>090-092>094-271700-
SOUTH-CENTRAL ILLINOIS

CITY           SKY/WX    TMP DP  RH WIND       PRES   REMARKS
CARBONDALE     CLOUDY    50  44  80 W9G20     29.78R
CAIRO*         CLOUDY    51  45  80 SW9       29.80R
EFFINGHAM*     CLOUDY    51  47  88 SW12      29.74R
MARION         CLOUDY    52  46  82 W14       29.79R
MT. VERNON     CLOUDY    49  46  90 SW12      29.76R FOG
CENTRALIA*     CLOUDY    51  45  82 W14       29.74R
SALEM*         DRIZZLE   50  45  84 SW12G18   29.75R
METROPOLIS*    CLOUDY    53  47  80 SW12      29.80R
$$

ILZ067-068-072-073-078-083-087-091-271700-
SOUTHEAST ILLINOIS

CITY           SKY/WX    TMP DP  RH WIND       PRES   REMARKS
LAWRENCEVILLE  CLOUDY    53  46  77 W13       29.73R
FLORA*         CLOUDY    52  46  82 W10       29.74R
FAIRFIELD*     CLOUDY    51  46  80 W6        29.74R
HARRISBURG*    CLOUDY    52  48  86 W12       29.78R
ROBINSON*      CLOUDY    51  45  80 W16       29.73R
CARMI*         CLOUDY    54  48  79 W13       29.75R
$$

ABBREVIATIONS USED IN REMARKS
   TC - TEMPERATURE IN CELSIUS
  WCI - WIND CHILL INDEX
   HX - HEAT INDEX
  VSB - VISIBILITY
$$





USA.gov is the U.S. government's official web portal to all federal, state and local government web resources and services.